リニア彗星

392P/LINEAR (2020)

English version
Home page
Updated on November 3, 2020

---------------------------------------------------------------------

・ プロフィール

符号 392P/2019 U3
検出日 2019年10月26日
検出光度 19.2等
検出者 K. Sarneczky (Konkoly Observatory)

・ 写真集

・ 軌道要素

Epoch 2020 Mar. 12.0 TT = JDT 2458920.5                                         
T 2020 Mar. 31.84938 TT                                 Rudenko                 
q   1.9502411            (2000.0)            P               Q                  
n   0.06461660     Peri.   71.99644     -0.11839416     -0.99230795             
a   6.1504465      Node    24.88842     +0.87543203     -0.12149840             
e   0.6829106      Incl.    4.92938     +0.46861667     -0.02372915             
P  15.3                                                                         
From 406 observations 1989 Nov. 22-2020 Apr. 17, mean residual 0".5.            

・ 光度変化

        m1 = 14.5 + 5 logΔ + 10.0 log r

---------------------------------------------------------------------

軌道要素はM.P.E.C. 2020-H235に掲載されたものです。
光度グラフはComet for Windowsで作成したものです。

---------------------------------------------------------------------

Copyright(C) Seiichi Yoshida (comet@aerith.net). All rights reserved.